Dewpoint
-16 -15 -14 -12 -11 -11 -10 -10 -9 -9 -9 -9 -10 -10 -10 -9 -9 -9 -9 -9 -8 -8 -8 -8 -8 -8 -8 -8 -9 -9 -9 -9 -9 -10 -10 -10 -10 -10 -10 -10 -11 -11 -11 -11 -11 -11 -11 -10 -10 -10 -10 -11 -12 -13 -14 -14 -14 -14 -14 -14 -14 -14 -13
-17 -16 -16 -15 -14 -13 -12 -11 -10 -10 -9 -9 -9 -9 -9 -9 -9 -9 -9 -9 -9 -9 -9 -9 -9 -9 -9 -9 -9 -9 -9 -9 -9 -9 -10 -10 -10 -10 -10 -10 -10 -11 -11 -11 -11 -11 -11 -11 -11 -11 -10 -11 -11 -12 -13 -13 -13 -13 -14 -14 -14 -14 -13
-17 -17 -17 -16 -16 -15 -14 -13 -12 -12 -11 -10 -10 -9 -9 -9 -9 -9 -9 -9 -9 -9 -9 -9 -9 -9 -9 -9 -9 -9 -9 -9 -9 -9 -9 -9 -10 -10 -10 -10 -10 -10 -10 -11 -11 -11 -11 -11 -11 -11 -11 -11 -11 -11 -12 -12 -13 -13 -13 -13 -13 -14 -14
-18 -17 -17 -17 -16 -16 -15 -15 -14 -14 -13 -12 -11 -11 -10 -10 -9 -9 -9 -9 -9 -9 -9 -9 -9 -9 -9 -9 -9 -9 -9 -9 -9 -9 -9 -9 -9 -9 -9 -10 -10 -10 -10 -10 -10 -11 -11 -11 -11 -11 -11 -11 -11 -11 -12 -12 -12 -13 -13 -13 -14 -14 -14
-18 -18 -17 -17 -17 -16 -16 -16 -15 -15 -15 -14 -13 -13 -12 -11 -11 -10 -10 -9 -9 -9 -9 -9 -9 -9 -9 -9 -9 -9 -9 -9 -9 -9 -9 -9 -9 -9 -9 -9 -9 -9 -10 -10 -10 -10 -10 -10 -11 -11 -11 -11 -11 -11 -12 -12 -12 -13 -13 -14 -14 -14 -14
-18 -18 -18 -18 -17 -17 -16 -16 -16 -16 -15 -15 -15 -14 -14 -13 -13 -12 -12 -11 -11 -10 -10 -10 -10 -10 -10 -9 -9 -9 -9 -9 -9 -9 -9 -9 -9 -9 -9 -9 -9 -9 -9 -9 -9 -10 -10 -10 -10 -10 -10 -11 -11 -11 -11 -11 -12 -13 -14 -15 -14 -14 -13
-20 -19 -19 -18 -18 -18 -17 -17 -16 -16 -16 -15 -15 -15 -14 -14 -13 -13 -13 -12 -12 -12 -11 -11 -11 -10 -10 -10 -10 -10 -10 -10 -10 -9 -10 -10 -10 -10 -10 -9 -10 -10 -10 -10 -10 -10 -10 -10 -10 -10 -10 -10 -10 -10 -10 -10 -11 -11 -13 -14 -14 -14 -13
-21 -21 -21 -20 -19 -19 -18 -18 -17 -16 -16 -16 -15 -15 -14 -14 -14 -14 -13 -13 -13 -13 -12 -12 -11 -11 -11 -11 -11 -10 -10 -10 -10 -10 -10 -10 -10 -10 -10 -10 -10 -10 -10 -10 -10 -10 -10 -10 -10 -10 -10 -10 -10 -10 -10 -10 -10 -10 -11 -11 -12 -12 -12
-23 -23 -23 -22 -22 -21 -20 -19 -18 -17 -16 -16 -16 -15 -15 -15 -15 -14 -14 -14 -13 -13 -13 -13 -12 -12 -12 -12 -11 -11 -11 -11 -11 -11 -11 -11 -11 -11 -10 -10 -10 -10 -10 -10 -10 -10 -11 -10 -10 -10 -10 -10 -10 -10 -10 -10 -10 -10 -10 -10 -10 -11 -11
-25 -25 -25 -25 -24 -24 -23 -22 -20 -18 -17 -16 -16 -16 -16 -16 -15 -15 -15 -14 -14 -14 -14 -14 -13 -13 -12 -12 -12 -12 -12 -12 -12 -12 -12 -11 -11 -11 -11 -11 -11 -11 -11 -11 -11 -10 -10 -10 -10 -11 -11 -10 -10 -11 -11 -11 -10 -10 -11 -11 -10 -11 -11
-26 -26 -27 -27 -26 -27 -27 -26 -24 -20 -18 -17 -17 -17 -16 -16 -16 -16 -15 -15 -15 -15 -15 -15 -14 -14 -14 -14 -14 -13 -13 -13 -13 -13 -13 -13 -13 -12 -12 -12 -12 -12 -11 -11 -11 -11 -11 -11 -11 -11 -11 -11 -11 -11 -11 -11 -11 -11 -11 -11 -11 -11 -11
-26 -28 -28 -29 -28 -29 -30 -29 -29 -26 -20 -17 -17 -17 -16 -16 -16 -16 -16 -16 -16 -15 -15 -15 -15 -15 -15 -15 -15 -15 -16 -16 -16 -16 -15 -15 -15 -15 -14 -13 -13 -13 -13 -13 -12 -12 -12 -11 -11 -11 -11 -11 -11 -11 -11 -11 -11 -11 -11 -11 -11 -11 -11
-27 -28 -29 -29 -29 -30 -31 -30 -32 -31 -23 -19 -18 -18 -17 -17 -17 -17 -17 -16 -16 -16 -17 -18 -19 -20 -19 -19 -19 -19 -19 -19 -19 -19 -18 -17 -17 -17 -16 -15 -15 -14 -14 -14 -14 -13 -13 -12 -12 -12 -12 -11 -11 -11 -11 -11 -11 -11 -11 -11 -11 -11 -11
-27 -28 -28 -29 -28 -28 -29 -29 -30 -32 -27 -22 -19 -18 -18 -18 -18 -18 -17 -17 -18 -20 -23 -25 -27 -27 -26 -25 -25 -25 -25 -26 -24 -23 -22 -21 -20 -19 -18 -18 -17 -16 -15 -15 -14 -14 -14 -13 -13 -13 -13 -12 -12 -12 -12 -12 -12 -11 -11 -11 -11 -11 -12
-27 -27 -27 -27 -27 -27 -28 -28 -28 -29 -28 -25 -21 -19 -20 -21 -21 -21 -21 -22 -25 -28 -27 -26 -27 -27 -28 -29 -28 -28 -29 -26 -22 -21 -21 -21 -21 -21 -21 -20 -19 -18 -17 -16 -15 -15 -15 -14 -14 -14 -14 -13 -13 -13 -13 -12 -12 -12 -12 -12 -12 -12 -12
-26 -26 -26 -26 -26 -27 -27 -27 -28 -28 -28 -26 -22 -20 -22 -26 -26 -26 -27 -28 -29 -26 -23 -22 -22 -24 -26 -29 -29 -29 -29 -25 -21 -20 -21 -21 -21 -22 -22 -22 -22 -20 -19 -18 -17 -16 -16 -15 -15 -15 -14 -14 -14 -13 -13 -13 -13 -12 -12 -12 -12 -12 -12
-25 -25 -26 -26 -26 -26 -26 -26 -27 -27 -27 -27 -23 -21 -24 -28 -27 -27 -30 -30 -26 -22 -20 -21 -21 -22 -24 -28 -29 -29 -30 -28 -25 -23 -23 -22 -22 -23 -24 -25 -25 -24 -22 -20 -19 -18 -17 -16 -16 -15 -15 -15 -14 -14 -14 -14 -14 -13 -13 -13 -13 -12 -12
-25 -25 -25 -25 -25 -25 -25 -26 -26 -26 -27 -27 -24 -22 -24 -27 -27 -27 -28 -27 -23 -20 -20 -21 -21 -22 -24 -26 -28 -29 -29 -29 -26 -24 -24 -23 -23 -25 -28 -28 -27 -27 -27 -26 -24 -23 -22 -20 -18 -17 -16 -16 -15 -15 -15 -14 -14 -14 -14 -14 -14 -13 -13
-25 -24 -24 -24 -24 -25 -26 -26 -26 -26 -26 -26 -25 -23 -22 -24 -26 -26 -24 -23 -22 -20 -20 -21 -22 -22 -24 -25 -26 -28 -28 -26 -23 -23 -23 -24 -24 -27 -29 -28 -27 -28 -29 -31 -31 -30 -29 -27 -24 -22 -20 -19 -18 -17 -17 -16 -16 -16 -16 -15 -15 -14 -14
-24 -24 -24 -24 -25 -25 -26 -25 -25 -26 -25 -27 -27 -23 -21 -22 -24 -24 -22 -22 -21 -21 -21 -21 -22 -23 -24 -25 -27 -29 -29 -28 -25 -24 -24 -26 -27 -27 -26 -26 -27 -28 -29 -30 -30 -30 -30 -30 -30 -29 -28 -26 -24 -22 -20 -19 -18 -17 -16 -16 -15 -15 -15
-24 -24 -25 -25 -25 -24 -24 -24 -25 -26 -27 -29 -27 -23 -21 -22 -23 -22 -22 -22 -22 -22 -22 -23 -24 -25 -27 -29 -31 -32 -33 -32 -31 -30 -31 -32 -30 -28 -27 -27 -30 -31 -31 -31 -31 -31 -30 -30 -30 -29 -29 -29 -28 -26 -23 -20 -18 -17 -17 -16 -16 -16 -15
-24 -25 -25 -25 -24 -23 -23 -23 -25 -27 -28 -29 -26 -23 -22 -23 -23 -23 -24 -23 -23 -25 -26 -27 -29 -31 -33 -35 -36 -36 -36 -35 -35 -37 -37 -35 -33 -32 -32 -35 -36 -36 -36 -36 -35 -34 -33 -32 -31 -29 -28 -27 -27 -26 -24 -21 -19 -18 -17 -17 -16 -16 -16
-25 -24 -24 -23 -23 -23 -23 -23 -25 -27 -27 -27 -26 -23 -23 -24 -24 -24 -25 -26 -28 -30 -32 -34 -36 -37 -38 -38 -38 -38 -38 -37 -38 -39 -38 -37 -38 -38 -39 -39 -38 -38 -38 -38 -37 -36 -35 -34 -32 -30 -28 -26 -25 -25 -23 -21 -20 -19 -18 -18 -17 -16 -16
-24 -23 -23 -23 -23 -23 -23 -24 -26 -27 -27 -27 -26 -24 -24 -24 -25 -26 -28 -31 -34 -36 -37 -38 -39 -38 -38 -39 -38 -38 -38 -39 -39 -38 -38 -39 -39 -39 -39 -39 -38 -39 -38 -38 -38 -37 -36 -35 -33 -31 -30 -28 -27 -25 -24 -23 -21 -20 -20 -19 -18 -17 -17
-24 -23 -23 -23 -23 -23 -24 -25 -26 -27 -27 -28 -27 -26 -26 -26 -27 -29 -32 -35 -37 -38 -38 -38 -39 -38 -39 -39 -38 -38 -38 -38 -39 -38 -38 -39 -39 -38 -39 -39 -38 -38 -38 -38 -38 -37 -37 -36 -35 -33 -33 -32 -30 -29 -28 -26 -25 -23 -22 -21 -20 -19 -18
-24 -24 -24 -24 -24 -24 -25 -26 -26 -27 -28 -29 -29 -29 -29 -29 -31 -33 -35 -37 -38 -38 -38 -38 -38 -38 -38 -38 -38 -38 -38 -37 -38 -38 -38 -38 -38 -38 -38 -38 -38 -39 -39 -38 -38 -38 -37 -37 -36 -36 -35 -34 -34 -33 -31 -30 -28 -27 -26 -25 -24 -23 -21
-24 -24 -24 -24 -24 -25 -26 -26 -26 -27 -29 -29 -28 -29 -29 -30 -33 -36 -37 -38 -39 -38 -38 -38 -38 -38 -38 -37 -37 -37 -37 -37 -37 -37 -37 -37 -37 -37 -37 -37 -38 -38 -38 -38 -38 -38 -38 -38 -37 -37 -37 -36 -36 -35 -35 -33 -31 -29 -28 -27 -26 -25 -24
-24 -24 -24 -25 -25 -26 -27 -26 -26 -28 -29 -28 -27 -28 -29 -32 -36 -38 -38 -39 -38 -38 -38 -37 -37 -37 -37 -36 -37 -36 -36 -36 -36 -36 -36 -36 -36 -36 -36 -36 -37 -37 -37 -38 -38 -38 -38 -39 -38 -38 -38 -38 -38 -37 -37 -36 -34 -33 -31 -29 -27 -26 -25
-24 -24 -25 -25 -26 -27 -27 -26 -27 -29 -29 -27 -26 -28 -29 -32 -35 -38 -38 -38 -38 -38 -37 -37 -37 -37 -36 -36 -36 -36 -36 -36 -36 -35 -36 -35 -36 -36 -36 -36 -36 -36 -36 -37 -37 -37 -37 -38 -38 -38 -39 -39 -39 -39 -38 -38 -37 -36 -35 -33 -31 -29 -27
-25 -25 -26 -26 -26 -26 -27 -27 -29 -30 -29 -27 -27 -29 -31 -32 -36 -38 -38 -38 -38 -37 -37 -37 -37 -37 -36 -36 -36 -36 -36 -35 -35 -35 -35 -35 -35 -35 -36 -36 -36 -36 -36 -36 -36 -36 -37 -37 -38 -38 -38 -38 -38 -39 -39 -39 -38 -38 -37 -36 -34 -31 -29
-25 -26 -26 -26 -26 -26 -28 -30 -31 -31 -29 -28 -30 -34 -35 -36 -37 -38 -38 -38 -38 -37 -37 -37 -37 -37 -36 -36 -36 -36 -35 -35 -35 -35 -35 -35 -36 -36 -36 -36 -36 -36 -36 -36 -36 -36 -36 -37 -37 -37 -37 -38 -38 -38 -38 -39 -39 -39 -37 -36 -34 -32 -31
-26 -26 -26 -26 -26 -27 -29 -32 -32 -33 -32 -33 -35 -37 -37 -37 -38 -38 -38 -38 -37 -37 -37 -37 -36 -36 -36 -35 -35 -35 -35 -35 -35 -35 -35 -35 -35 -36 -36 -36 -36 -36 -36 -36 -36 -36 -37 -37 -37 -37 -37 -37 -38 -38 -38 -39 -39 -38 -37 -35 -34 -33 -32
-27 -26 -26 -26 -27 -28 -31 -32 -34 -36 -36 -37 -37 -37 -37 -37 -37 -37 -37 -37 -36 -36 -36 -35 -35 -34 -34 -34 -34 -34 -34 -34 -34 -34 -34 -35 -35 -35 -36 -36 -36 -36 -37 -37 -37 -37 -37 -37 -37 -37 -37 -37 -37 -38 -38 -38 -38 -37 -36 -35 -34 -33 -33
-26 -26 -27 -28 -30 -31 -32 -34 -36 -37 -37 -37 -37 -36 -36 -36 -36 -36 -36 -35 -35 -34 -33 -33 -33 -32 -32 -32 -32 -32 -32 -32 -33 -33 -33 -34 -34 -35 -36 -36 -36 -37 -37 -37 -37 -37 -37 -37 -37 -37 -37 -37 -37 -38 -38 -37 -37 -36 -35 -35 -35 -35 -35
-26 -27 -29 -31 -31 -32 -34 -36 -37 -37 -37 -36 -36 -35 -34 -34 -34 -34 -33 -33 -33 -32 -32 -31 -31 -31 -31 -31 -31 -31 -31 -31 -31 -32 -32 -32 -33 -34 -35 -35 -36 -36 -37 -37 -37 -37 -38 -38 -38 -38 -38 -38 -38 -38 -38 -37 -36 -36 -36 -36 -36 -36 -35
-27 -29 -30 -31 -32 -33 -36 -37 -37 -37 -36 -35 -34 -34 -33 -32 -32 -32 -32 -31 -31 -31 -31 -31 -31 -31 -31 -31 -31 -31 -31 -31 -31 -31 -31 -31 -32 -32 -33 -34 -35 -36 -37 -37 -37 -38 -38 -38 -38 -38 -38 -38 -38 -38 -38 -38 -36 -36 -37 -37 -36 -35 -34
Wind_Speed
23 23 24 23 23 23 23 24 23 22 21 20 20 19 19 19 19 20 21 23 24 26 26 27 28 29 29 30 31 31 30 30 30 31 33 34 35 36 36 36 35 38 42 39 36 36 34 32 32 31 30 29 27 26 27 29 31 32 32 32 33 34 33
22 22 22 22 22 22 22 23 23 23 23 22 22 21 20 20 21 22 22 22 22 23 23 24 25 26 26 26 28 30 30 30 31 31 32 33 34 36 36 36 36 37 40 40 37 37 36 35 34 35 35 33 31 29 28 29 32 33 34 35 35 35 36
22 22 21 21 20 20 21 21 22 22 22 22 22 22 22 22 22 22 22 22 22 22 22 23 24 25 25 25 25 26 26 28 30 31 32 32 33 34 35 35 35 36 38 39 38 36 35 34 33 34 36 35 35 34 33 34 34 34 36 38 37 37 37
23 22 22 20 19 19 20 20 20 21 21 20 20 21 22 23 23 23 23 22 22 22 22 23 24 25 25 25 26 26 25 25 27 29 31 33 33 34 34 34 33 34 36 37 37 36 35 33 32 33 34 33 34 35 35 36 36 36 37 38 38 38 38
24 22 22 21 19 19 19 20 20 20 19 19 19 20 21 21 21 21 21 21 21 21 21 21 22 23 23 23 23 24 25 24 25 26 28 31 32 32 33 34 34 34 36 36 38 38 37 34 33 33 33 33 33 34 34 34 35 35 36 37 38 39 40
25 23 22 22 21 20 20 20 19 18 18 19 19 19 19 19 19 18 18 18 17 17 17 17 18 18 19 19 19 20 21 21 22 22 23 26 28 29 30 31 32 33 35 37 39 40 40 38 37 36 35 34 33 34 34 34 34 34 34 35 38 40 41
25 23 23 22 21 21 21 20 18 18 18 19 18 17 16 15 14 14 14 15 15 15 15 15 15 14 15 16 17 18 18 18 19 19 19 20 21 22 24 25 27 28 30 33 36 38 39 39 38 38 38 38 35 34 35 36 37 36 34 34 36 40 41
25 24 23 21 21 20 20 19 18 18 18 17 15 14 13 11 10 11 12 13 14 15 15 16 15 15 15 16 17 18 18 18 18 19 20 19 19 19 20 21 23 25 27 29 31 33 36 37 37 37 38 37 35 34 37 38 38 38 37 36 36 38 40
25 25 23 21 20 19 18 18 17 16 16 15 13 12 11 10 10 12 12 13 13 13 14 14 14 15 16 16 17 18 19 18 18 18 19 19 20 20 20 19 19 20 24 27 30 32 33 34 36 37 37 36 35 35 37 37 37 38 40 40 39 39 40
24 23 22 21 19 18 17 16 16 15 14 12 11 12 11 11 12 14 14 15 15 14 15 15 15 16 17 18 18 19 19 20 19 19 20 20 20 21 21 21 20 20 19 21 25 29 31 33 35 36 36 35 35 34 35 35 35 37 38 39 39 41 42
23 21 20 20 18 17 16 15 14 13 12 10 9 11 11 12 13 13 15 16 15 15 15 16 18 20 20 22 23 23 23 22 22 23 23 24 24 23 23 23 24 24 23 22 21 22 25 29 33 35 35 35 35 33 33 33 33 34 36 36 38 40 41
21 20 19 18 17 16 15 15 13 12 10 8 8 10 12 14 12 12 13 14 14 15 17 19 20 21 21 22 22 21 20 19 19 20 21 22 23 23 24 24 22 21 22 23 24 24 24 25 27 30 31 32 33 33 33 32 32 33 35 36 37 39 41
20 18 17 17 16 15 14 13 13 10 8 6 7 8 12 13 12 12 14 15 16 17 17 18 18 17 16 15 14 14 15 15 16 17 18 20 21 22 23 24 24 22 20 19 21 24 28 28 27 27 27 26 26 28 31 32 34 34 35 37 38 40 42
19 17 16 15 14 14 13 12 12 10 8 8 7 8 11 13 12 13 16 17 17 15 14 14 14 12 12 12 11 11 12 12 12 14 15 17 19 20 21 23 24 24 23 21 20 21 25 28 29 29 30 29 26 26 28 29 31 33 34 37 39 40 41
18 16 15 14 13 12 11 11 11 9 9 9 7 9 13 16 13 12 14 14 13 10 9 11 12 12 13 12 9 9 10 9 10 12 13 15 17 18 19 20 18 17 19 22 24 23 23 25 25 25 28 29 28 28 29 31 32 34 35 37 38 39 40
16 15 14 13 11 11 10 9 9 8 9 8 7 11 15 14 10 9 9 9 9 7 7 10 12 13 15 13 9 9 9 8 10 13 14 17 19 19 19 19 17 16 19 23 25 26 26 26 26 25 26 27 26 24 24 26 30 32 33 36 39 41 42
15 13 12 11 10 9 8 7 7 7 8 8 7 11 14 13 10 8 8 7 5 4 6 9 9 12 16 14 12 12 12 11 14 16 17 19 23 24 23 22 21 22 25 26 26 28 29 30 31 31 31 32 30 28 25 24 26 26 26 29 34 38 41
13 11 11 10 9 8 7 6 7 7 8 7 7 9 13 13 11 9 8 6 2 3 9 11 10 13 17 17 17 17 16 15 16 18 19 21 24 27 26 25 26 28 30 29 27 28 30 32 34 35 36 36 35 35 33 32 33 32 30 30 32 34 36
12 10 9 9 8 8 7 6 7 7 8 8 7 8 12 13 10 7 6 5 4 8 13 14 14 17 19 20 20 19 17 15 15 17 20 23 26 28 28 27 28 31 33 31 30 30 30 31 32 33 35 36 36 37 37 36 36 35 34 35 37 37 35
11 9 8 8 8 9 9 8 7 6 7 7 5 7 10 10 8 8 8 8 8 11 14 16 18 20 20 20 20 17 15 15 15 17 22 24 25 25 25 26 30 33 33 34 33 33 32 33 33 32 32 33 33 32 31 30 29 29 28 30 33 35 35
10 9 8 7 7 9 10 10 7 5 7 6 3 7 9 9 9 11 11 11 12 14 15 18 19 19 19 19 17 15 15 16 17 20 23 23 21 20 22 27 31 32 32 33 33 33 33 33 33 33 32 32 30 27 24 24 26 27 26 24 24 27 30
9 8 7 6 5 6 10 13 10 8 7 4 2 5 9 9 10 13 13 12 13 14 14 16 17 17 16 15 15 15 16 17 19 21 20 19 19 22 24 27 28 29 29 30 30 30 30 30 29 30 30 29 29 27 25 26 27 28 29 28 26 25 25
8 7 7 6 4 4 10 13 12 10 8 3 3 4 7 7 12 15 14 12 12 12 12 14 14 14 14 13 13 14 15 16 18 18 17 18 20 21 22 23 24 25 25 26 25 25 26 26 26 27 28 28 28 28 28 28 29 28 29 31 33 32 31
6 5 6 5 5 9 13 13 12 10 7 3 2 2 3 8 15 16 14 13 13 12 12 13 13 12 12 12 12 13 14 14 15 15 16 18 19 20 20 21 21 21 22 22 21 22 22 23 23 25 26 27 28 30 30 31 32 31 30 31 33 35 35
6 7 7 6 9 13 14 12 11 9 7 5 5 4 6 11 15 15 14 13 13 12 12 11 11 10 10 10 11 11 12 13 14 15 16 18 18 19 20 20 21 21 21 21 20 20 20 21 21 23 25 27 28 30 31 31 33 35 35 35 36 37 37
8 9 6 6 11 13 12 11 11 8 7 8 9 9 11 13 14 14 14 13 12 11 10 9 9 9 9 9 10 11 12 13 13 14 15 16 17 18 19 19 20 21 21 21 21 20 20 20 21 22 23 25 27 28 29 29 31 34 35 35 36 37 39
10 9 7 9 12 13 12 11 9 7 7 10 13 15 16 16 15 13 12 11 10 8 8 8 7 8 8 9 10 10 11 12 12 13 14 14 16 17 18 18 19 19 19 20 20 20 20 20 21 21 22 23 24 25 26 26 28 30 31 31 31 32 35
10 10 11 13 13 12 12 12 9 5 4 9 15 17 19 19 15 12 11 10 9 8 8 8 7 8 8 9 9 10 10 11 11 12 13 14 15 16 17 18 18 18 18 19 19 20 20 21 21 22 22 23 23 23 24 24 25 27 28 28 28 29 30
10 12 14 14 13 14 13 11 8 6 2 6 11 16 18 18 16 13 12 10 9 9 9 8 8 9 9 9 10 11 12 12 13 13 14 15 15 16 17 18 18 19 19 19 20 21 21 22 23 23 23 24 24 23 23 23 23 24 25 25 25 25 27
7 13 16 15 14 15 13 9 6 5 2 4 11 13 13 15 16 14 12 10 10 9 9 9 9 10 10 11 12 13 14 15 16 16 16 16 17 17 18 18 19 19 19 19 20 21 21 22 23 23 24 24 25 24 23 22 22 22 22 22 22 23 24
8 11 16 17 15 14 11 7 4 4 4 7 12 12 11 12 14 12 11 9 9 8 8 9 9 10 11 12 13 14 16 16 17 18 18 18 18 18 18 19 19 19 19 19 19 20 22 22 22 23 24 24 24 24 24 23 22 21 20 19 20 21 22
11 12 14 15 15 13 11 8 6 6 8 11 12 10 9 9 11 10 9 8 8 7 7 8 9 9 11 12 13 15 16 16 17 18 18 19 19 18 18 19 19 19 19 19 19 20 22 22 21 22 23 24 24 24 24 23 22 21 20 20 20 20 21
12 13 14 15 14 13 11 10 9 8 8 10 10 8 7 7 8 7 7 6 6 7 7 8 9 10 11 12 13 14 15 16 17 17 18 19 19 19 19 18 18 18 18 18 19 20 21 20 20 21 22 23 23 23 23 23 22 21 21 21 21 22 23
10 11 12 12 11 10 10 10 9 8 7 7 7 7 7 7 7 6 6 6 6 6 7 8 9 10 11 12 13 14 15 15 16 17 18 18 18 19 19 19 18 18 18 18 19 20 20 19 20 21 22 22 22 22 22 21 21 21 21 23 24 24 24
10 9 9 9 8 9 9 9 7 6 5 5 5 5 6 6 7 6 6 6 6 6 8 8 9 11 12 12 13 14 15 16 16 17 18 18 19 19 20 20 19 19 19 19 20 20 19 20 20 20 20 20 21 22 21 21 21 22 23 24 24 24 25
10 8 8 9 8 8 8 7 6 6 4 4 3 4 5 6 6 6 6 6 7 7 8 9 10 11 12 12 13 14 15 16 16 17 18 19 19 20 20 20 21 21 20 20 20 19 19 20 20 19 20 20 20 20 20 20 20 22 23 23 23 23 24
Wind_Direction
298 294 291 288 285 283 281 278 274 269 264 259 256 253 250 247 243 241 242 244 244 243 244 246 248 249 248 246 246 245 245 246 245 244 243 243 244 245 246 247 250 254 258 259 258 258 257 254 250 249 254 262 266 265 263 264 265 266 265 264 264 266 266
301 297 294 291 288 284 281 279 277 274 270 265 260 256 252 249 246 244 243 242 242 242 241 243 245 247 249 249 249 248 247 247 247 246 246 246 245 247 247 248 249 253 257 260 260 259 259 257 253 250 250 253 259 263 264 264 265 266 266 266 266 266 267
306 302 297 293 291 287 283 280 278 275 272 270 267 262 257 252 249 247 246 245 244 242 240 239 240 242 243 244 247 249 249 248 247 247 247 247 247 247 248 248 249 252 256 260 262 261 260 259 256 253 251 250 253 259 263 264 266 267 267 268 268 266 266
306 303 300 298 294 289 285 282 279 276 274 274 271 267 262 258 254 251 250 249 248 246 244 242 242 242 242 242 243 245 246 247 246 247 247 248 247 248 248 248 247 249 252 257 260 261 260 259 257 255 253 250 250 253 258 262 265 265 265 265 266 266 266
305 302 300 300 296 291 288 284 281 281 280 276 270 266 265 264 262 260 258 256 255 254 252 250 249 249 248 248 247 248 248 248 248 247 248 249 249 249 249 249 248 248 248 252 256 259 259 258 257 255 254 251 248 248 252 258 262 264 263 263 263 264 266
306 303 299 297 296 294 291 288 288 287 282 275 271 271 270 269 267 265 262 261 260 258 256 255 254 254 254 252 251 250 249 248 249 250 251 253 254 255 256 255 254 253 252 252 254 258 259 259 258 257 255 252 248 246 247 251 257 261 261 261 261 261 263
304 302 299 297 297 295 292 292 291 287 282 279 279 278 274 271 271 270 268 263 258 253 249 247 248 249 249 248 245 245 246 246 245 245 247 252 256 259 261 262 262 261 260 259 259 260 260 261 261 261 260 258 254 251 249 248 251 256 259 259 259 260 261
302 300 300 299 297 294 292 292 289 286 285 284 283 278 273 272 272 269 268 266 261 256 251 248 249 250 251 249 247 247 249 250 249 248 247 247 250 254 259 264 267 267 266 265 265 265 265 265 266 265 265 264 260 255 253 250 249 253 257 258 259 260 261
300 299 300 299 296 294 293 291 288 286 286 284 283 281 275 270 268 262 257 255 254 254 253 250 248 248 247 245 245 245 246 248 250 251 251 249 248 250 252 254 259 264 267 267 266 266 266 267 267 267 266 264 260 257 257 258 257 257 258 259 260 261 261
297 297 298 298 296 294 292 289 285 283 280 280 294 302 290 276 276 273 265 260 257 254 255 253 248 246 247 248 247 248 249 252 253 255 256 256 253 252 252 251 251 252 257 264 267 267 266 265 265 267 267 265 264 263 263 263 263 262 263 263 263 262 262
296 296 295 295 294 294 290 286 284 282 276 282 311 323 310 290 283 280 273 270 269 265 263 262 259 257 258 260 260 260 261 262 261 259 259 258 257 256 255 255 256 254 253 255 260 265 268 268 269 270 270 269 269 269 267 265 264 263 263 263 262 262 263
296 293 293 292 291 290 287 284 284 278 276 297 327 333 317 297 281 274 274 275 277 277 275 274 273 272 271 271 270 270 269 268 267 265 263 261 259 257 255 253 254 258 261 261 261 262 263 265 270 274 274 273 272 271 268 266 264 262 261 260 259 260 263
295 292 291 289 287 286 283 283 281 274 271 293 322 332 315 297 282 275 276 277 280 284 285 284 284 284 282 278 276 277 277 276 275 272 268 265 263 260 258 255 250 249 252 259 267 267 263 261 265 271 271 270 273 273 271 267 264 262 261 259 258 259 262
294 292 289 287 286 284 282 281 277 272 267 271 302 329 302 280 277 279 279 282 286 290 293 291 292 290 283 281 285 290 291 293 295 291 283 276 269 264 262 260 257 256 254 254 259 265 265 263 264 268 267 266 269 270 270 269 266 264 262 261 262 262 264
294 293 290 288 287 283 282 282 275 273 270 268 301 322 290 276 280 281 280 288 296 303 301 291 291 290 283 283 291 298 299 307 315 308 297 288 280 274 270 268 267 267 263 258 256 258 261 262 261 264 266 266 269 269 268 269 269 268 267 266 264 264 263
293 292 291 289 288 283 283 282 276 275 272 273 309 316 292 287 296 290 288 303 313 319 302 292 299 299 289 288 297 302 301 304 306 298 290 287 284 280 278 277 273 267 259 255 254 253 253 255 257 261 263 264 267 268 268 271 272 270 269 268 265 261 260
291 290 289 289 290 287 285 284 282 283 279 283 315 317 299 297 307 305 305 317 329 320 286 287 301 297 292 299 312 314 310 303 297 293 289 288 286 282 281 280 277 271 263 257 255 255 255 255 256 257 258 259 260 260 262 270 273 270 271 274 269 263 260
287 286 286 289 293 293 291 293 294 295 293 294 310 316 305 301 309 316 314 314 317 247 258 265 270 279 293 308 314 315 316 310 304 301 295 292 289 286 287 288 286 280 274 269 267 265 264 262 259 258 259 259 260 260 261 268 274 274 275 279 276 270 267
285 286 286 289 297 298 296 303 303 302 304 297 299 318 317 309 310 309 294 277 233 228 245 257 267 280 294 305 309 313 314 309 308 305 296 290 290 292 295 297 292 287 286 286 283 278 274 270 267 266 265 264 265 264 264 267 273 278 280 280 277 274 273
283 286 287 288 297 300 300 305 305 305 305 298 313 344 330 311 305 294 272 260 248 243 252 265 276 287 295 301 307 310 306 301 301 296 290 290 296 301 302 296 290 289 292 294 292 289 286 283 280 278 276 275 274 273 272 272 272 274 278 281 280 277 273
283 286 287 289 302 308 307 309 317 322 309 298 6 12 332 301 288 278 267 265 267 266 272 279 284 291 296 300 306 307 302 299 293 289 292 297 299 298 294 290 290 293 294 293 293 292 291 289 287 285 284 282 282 280 276 269 264 260 261 268 278 279 276
283 286 292 303 318 306 295 303 321 335 321 300 100 41 349 317 291 281 276 279 285 285 287 290 292 296 301 306 310 308 304 300 296 296 300 299 294 291 291 293 295 295 294 293 294 293 292 290 289 286 283 281 278 275 268 262 259 256 254 255 261 270 276
284 293 307 324 329 269 269 292 315 328 326 311 138 71 9 321 286 289 301 309 309 305 302 303 305 310 313 315 314 309 305 304 305 308 307 301 300 302 302 302 302 300 299 299 298 296 293 290 287 284 281 278 273 270 266 262 261 259 256 254 255 259 263
282 280 286 295 281 262 269 292 315 323 326 313 181 117 355 293 283 298 319 326 323 320 319 319 322 324 323 320 316 312 311 313 315 316 316 316 318 318 317 316 315 313 311 310 308 304 300 296 293 288 285 281 277 273 269 266 264 264 262 260 259 258 257
272 266 270 268 261 265 279 301 319 325 323 299 256 240 268 282 295 316 332 333 331 330 329 329 330 329 326 324 322 322 324 327 329 328 328 329 328 326 326 326 325 324 323 322 320 317 312 306 301 296 291 289 287 283 279 276 272 268 266 264 262 260 258
269 274 280 263 259 271 289 307 321 324 313 298 292 289 291 300 318 335 338 335 335 335 335 339 339 336 336 336 336 339 339 338 337 335 333 332 330 330 331 332 331 332 333 331 328 325 320 315 310 305 300 297 294 291 290 288 284 278 274 271 270 267 262
276 281 275 257 262 280 297 307 315 317 307 312 315 314 314 320 333 344 340 337 341 344 348 353 350 347 352 352 348 348 347 344 342 340 337 336 335 335 336 336 337 338 336 333 331 328 324 320 317 313 309 306 302 299 298 295 293 290 287 284 283 280 272
279 280 274 271 279 292 301 309 313 296 308 333 326 316 316 323 336 350 348 343 351 358 357 0 1 0 2 360 355 354 352 350 350 348 346 345 343 341 339 338 338 338 336 334 332 329 326 325 324 322 320 318 315 312 309 304 300 297 295 293 291 288 284
290 288 282 284 294 298 302 313 307 280 320 348 314 304 314 323 332 349 353 349 357 2 358 1 5 4 3 2 1 0 359 358 358 356 354 353 349 346 344 342 340 339 338 336 334 332 332 332 330 328 327 326 324 323 321 317 311 307 303 301 298 293 289
296 296 292 294 300 301 305 315 301 277 326 320 289 294 313 317 320 337 348 349 356 359 357 0 3 2 5 5 4 4 3 1 1 360 359 358 355 351 349 346 344 342 341 339 337 334 335 336 334 331 330 330 330 329 327 325 322 317 313 311 310 303 296
261 282 293 300 303 303 309 324 316 284 274 276 284 301 316 310 315 334 344 345 351 354 354 1 4 4 8 8 6 7 6 4 2 1 360 359 358 355 352 349 347 345 343 340 337 335 335 336 335 332 332 333 333 332 330 329 327 325 322 319 319 315 307
267 270 280 290 297 302 310 323 320 295 280 282 293 309 318 314 322 334 336 338 348 354 357 4 8 11 13 12 11 11 9 6 4 2 0 359 359 358 355 353 350 347 344 340 336 334 335 335 334 332 332 334 335 333 332 333 332 331 329 325 322 321 315
281 276 273 276 284 294 305 312 310 300 293 293 301 316 328 327 327 329 331 340 350 356 3 11 16 18 18 17 16 14 11 8 7 4 3 2 1 359 357 355 352 348 345 342 339 338 337 335 334 331 331 332 333 334 334 335 335 334 334 331 327 323 318
287 279 275 275 280 289 297 301 299 298 295 294 304 322 335 335 331 331 339 348 355 4 14 19 21 22 21 19 17 15 12 10 7 6 5 4 2 1 359 357 354 350 348 347 344 341 339 337 334 332 331 331 332 333 334 335 337 336 334 331 326 323 322
296 283 273 275 282 288 291 290 288 288 289 290 304 325 334 335 335 336 341 349 360 10 18 20 21 21 20 18 15 13 11 9 7 5 5 4 3 3 1 358 356 354 352 350 346 342 341 339 335 333 332 329 329 332 333 334 336 335 331 328 327 326 327
290 277 269 276 283 284 284 283 280 280 282 286 304 324 332 334 334 333 338 352 3 9 14 16 16 16 15 14 12 10 7 6 5 3 2 2 2 2 0 358 358 357 355 350 346 343 341 340 336 334 332 329 328 330 332 332 333 332 331 331 331 329 328
Height
1442 1440 1439 1439 1438 1437 1437 1436 1436 1436 1435 1435 1435 1435 1435 1434 1435 1435 1435 1436 1437 1438 1439 1440 1440 1441 1442 1443 1443 1443 1444 1445 1446 1447 1448 1449 1450 1450 1451 1452 1452 1449 1446 1448 1451 1451 1452 1454 1455 1455 1454 1454 1455 1456 1456 1457 1457 1458 1459 1460 1461 1462 1463
1439 1438 1437 1436 1435 1435 1434 1433 1433 1432 1432 1432 1432 1432 1432 1432 1432 1432 1432 1432 1433 1434 1435 1436 1436 1437 1438 1438 1438 1439 1440 1440 1442 1443 1443 1444 1445 1446 1447 1448 1449 1447 1444 1444 1446 1447 1447 1449 1450 1451 1451 1451 1451 1452 1453 1453 1453 1454 1454 1454 1455 1456 1458
1437 1436 1435 1434 1433 1432 1431 1430 1430 1429 1429 1429 1429 1429 1429 1429 1429 1429 1429 1429 1430 1430 1431 1431 1432 1433 1433 1434 1434 1434 1435 1436 1437 1438 1439 1439 1441 1441 1442 1444 1445 1444 1442 1441 1441 1443 1443 1444 1445 1446 1447 1448 1448 1448 1448 1448 1449 1450 1450 1450 1450 1451 1452
1435 1433 1432 1431 1431 1429 1428 1428 1427 1426 1426 1426 1426 1425 1425 1425 1425 1426 1426 1426 1427 1427 1428 1428 1428 1429 1429 1430 1430 1430 1431 1431 1432 1434 1434 1435 1436 1437 1437 1439 1440 1441 1440 1439 1438 1438 1439 1440 1441 1441 1442 1444 1444 1444 1444 1444 1444 1444 1445 1445 1445 1446 1446
1433 1431 1430 1429 1428 1427 1426 1425 1424 1424 1424 1423 1422 1421 1421 1422 1422 1423 1423 1423 1423 1424 1424 1424 1425 1425 1426 1426 1427 1427 1427 1428 1428 1429 1430 1431 1432 1433 1433 1434 1436 1436 1437 1436 1434 1433 1434 1435 1436 1436 1437 1439 1440 1440 1440 1439 1439 1439 1439 1440 1441 1441 1441
1430 1429 1428 1426 1425 1424 1423 1422 1422 1422 1421 1420 1419 1419 1419 1419 1419 1419 1420 1420 1420 1421 1421 1421 1421 1422 1422 1423 1423 1423 1423 1424 1424 1425 1426 1427 1428 1429 1430 1430 1431 1432 1432 1432 1431 1430 1430 1431 1431 1432 1432 1433 1435 1436 1436 1436 1435 1434 1434 1435 1435 1435 1436
1428 1427 1425 1424 1423 1422 1421 1420 1420 1419 1418 1417 1417 1417 1417 1417 1417 1416 1416 1417 1417 1417 1417 1418 1418 1419 1419 1419 1420 1420 1419 1420 1421 1422 1423 1424 1424 1425 1426 1426 1427 1428 1428 1428 1428 1427 1427 1427 1427 1427 1427 1428 1431 1432 1431 1431 1430 1429 1429 1430 1430 1430 1431
1426 1424 1423 1422 1421 1420 1419 1418 1417 1416 1416 1415 1415 1415 1414 1414 1414 1414 1414 1414 1414 1414 1415 1415 1416 1416 1416 1417 1417 1417 1417 1417 1417 1418 1419 1420 1421 1421 1422 1422 1423 1423 1423 1423 1423 1423 1423 1423 1423 1423 1422 1423 1426 1426 1425 1426 1426 1425 1425 1425 1425 1425 1426
1423 1422 1421 1420 1419 1418 1417 1416 1415 1414 1414 1414 1413 1413 1413 1413 1412 1412 1412 1412 1412 1412 1412 1413 1414 1414 1414 1414 1414 1414 1414 1414 1415 1415 1416 1417 1417 1418 1418 1418 1419 1419 1419 1419 1419 1419 1419 1419 1418 1418 1418 1419 1420 1420 1420 1421 1422 1421 1420 1421 1420 1420 1420
1421 1419 1418 1417 1416 1415 1414 1414 1413 1413 1412 1412 1412 1412 1412 1411 1411 1410 1410 1409 1410 1410 1411 1411 1412 1412 1411 1411 1411 1411 1411 1412 1412 1413 1413 1414 1414 1414 1415 1415 1415 1415 1416 1416 1416 1415 1416 1415 1414 1413 1414 1414 1415 1416 1416 1417 1417 1416 1416 1416 1415 1414 1414
1418 1417 1416 1415 1414 1413 1412 1412 1411 1411 1411 1411 1412 1411 1411 1410 1409 1409 1408 1407 1408 1408 1409 1409 1409 1409 1409 1408 1408 1408 1409 1409 1410 1410 1410 1411 1411 1411 1411 1412 1412 1412 1412 1412 1412 1412 1412 1412 1410 1410 1410 1410 1411 1412 1412 1412 1412 1412 1412 1411 1410 1408 1408
1416 1415 1414 1413 1412 1411 1410 1410 1409 1409 1409 1409 1410 1410 1409 1407 1407 1406 1405 1405 1405 1406 1406 1406 1405 1406 1406 1405 1405 1406 1406 1406 1406 1406 1406 1406 1407 1407 1407 1408 1408 1408 1409 1409 1408 1408 1408 1408 1407 1407 1407 1407 1407 1407 1408 1408 1408 1407 1407 1406 1405 1404 1402
1413 1412 1412 1411 1410 1410 1409 1408 1408 1408 1408 1407 1408 1408 1407 1404 1404 1404 1404 1403 1403 1403 1403 1402 1402 1402 1402 1401 1402 1402 1402 1402 1402 1402 1402 1402 1402 1402 1403 1403 1403 1404 1404 1405 1405 1404 1403 1404 1404 1403 1403 1404 1404 1404 1403 1403 1402 1403 1402 1401 1401 1399 1399
1411 1410 1410 1409 1408 1408 1407 1407 1406 1406 1406 1405 1406 1406 1404 1402 1403 1403 1402 1402 1402 1401 1400 1399 1399 1399 1398 1398 1399 1399 1398 1398 1398 1398 1398 1397 1397 1397 1398 1398 1399 1400 1401 1401 1401 1400 1399 1399 1400 1399 1398 1399 1400 1399 1399 1398 1398 1398 1398 1397 1396 1396 1396
1408 1408 1407 1407 1406 1406 1405 1405 1404 1404 1404 1403 1404 1403 1401 1400 1402 1402 1401 1400 1400 1399 1398 1397 1397 1396 1396 1396 1397 1396 1396 1396 1395 1395 1394 1393 1393 1393 1393 1394 1395 1397 1396 1396 1396 1395 1395 1395 1395 1394 1394 1393 1394 1395 1394 1394 1394 1393 1393 1392 1391 1391 1391
1406 1406 1405 1405 1404 1404 1404 1403 1403 1402 1402 1402 1402 1400 1399 1399 1400 1400 1399 1399 1398 1398 1397 1396 1395 1394 1393 1394 1395 1395 1394 1394 1393 1392 1391 1390 1389 1389 1390 1391 1392 1393 1392 1391 1391 1391 1391 1390 1390 1391 1390 1390 1390 1390 1390 1390 1388 1388 1388 1387 1385 1384 1384
1405 1404 1403 1403 1403 1402 1402 1402 1401 1401 1400 1400 1400 1399 1397 1398 1398 1398 1398 1397 1397 1397 1396 1395 1394 1392 1391 1392 1393 1392 1392 1391 1390 1389 1388 1386 1385 1385 1386 1387 1388 1387 1386 1386 1386 1386 1387 1386 1386 1386 1385 1385 1386 1386 1386 1385 1382 1382 1383 1382 1381 1379 1378
1403 1402 1402 1401 1401 1401 1400 1400 1400 1399 1399 1399 1398 1397 1396 1396 1396 1396 1396 1395 1396 1395 1394 1393 1392 1390 1389 1390 1390 1390 1390 1389 1388 1386 1384 1383 1381 1381 1382 1383 1382 1380 1379 1381 1383 1383 1382 1382 1381 1381 1380 1380 1381 1381 1382 1381 1379 1378 1379 1377 1376 1375 1374
1401 1401 1400 1400 1400 1399 1399 1399 1398 1398 1398 1397 1397 1397 1395 1394 1394 1394 1394 1393 1393 1393 1392 1391 1390 1389 1388 1388 1388 1388 1387 1386 1385 1384 1381 1380 1378 1378 1378 1378 1376 1374 1374 1375 1377 1377 1376 1376 1376 1376 1375 1375 1376 1376 1377 1377 1376 1375 1375 1373 1372 1371 1370
1399 1399 1399 1399 1398 1397 1397 1397 1397 1396 1396 1396 1396 1396 1394 1393 1393 1392 1392 1391 1392 1391 1390 1390 1389 1388 1387 1386 1386 1385 1384 1384 1383 1381 1378 1378 1377 1376 1375 1374 1372 1371 1371 1371 1370 1370 1371 1370 1370 1371 1370 1370 1370 1371 1371 1372 1372 1371 1370 1369 1367 1367 1366
1398 1397 1397 1397 1397 1396 1395 1395 1395 1395 1394 1394 1395 1394 1392 1391 1391 1390 1390 1390 1390 1390 1389 1388 1387 1386 1385 1384 1383 1383 1381 1381 1380 1378 1376 1376 1375 1374 1372 1370 1369 1369 1368 1367 1366 1366 1366 1365 1365 1365 1365 1364 1364 1365 1365 1364 1364 1364 1365 1364 1363 1361 1360
1396 1396 1396 1396 1395 1395 1394 1393 1393 1393 1393 1392 1393 1393 1391 1389 1388 1388 1388 1388 1388 1387 1386 1385 1384 1383 1382 1381 1381 1380 1378 1377 1376 1375 1374 1373 1372 1370 1369 1367 1366 1365 1364 1364 1363 1362 1362 1361 1361 1360 1359 1359 1359 1359 1358 1358 1357 1358 1359 1359 1358 1357 1355
1394 1394 1394 1394 1394 1394 1392 1392 1392 1391 1391 1391 1391 1392 1391 1388 1386 1385 1386 1386 1386 1384 1383 1382 1381 1380 1379 1378 1378 1377 1376 1374 1373 1372 1371 1370 1368 1367 1366 1365 1364 1362 1361 1360 1360 1359 1358 1358 1357 1356 1355 1354 1354 1353 1353 1353 1352 1352 1353 1353 1352 1351 1349
1393 1393 1393 1393 1393 1392 1391 1391 1390 1390 1389 1389 1389 1390 1389 1386 1384 1384 1384 1384 1383 1381 1380 1379 1378 1377 1376 1376 1375 1374 1373 1372 1370 1369 1368 1366 1365 1364 1363 1361 1360 1359 1358 1357 1357 1356 1355 1355 1354 1353 1352 1351 1350 1349 1348 1348 1347 1347 1346 1346 1344 1343 1343
1392 1392 1392 1392 1391 1390 1389 1389 1389 1388 1388 1387 1387 1387 1386 1384 1383 1383 1383 1381 1380 1379 1378 1377 1376 1375 1374 1374 1373 1372 1371 1369 1368 1367 1365 1364 1363 1361 1360 1359 1358 1356 1355 1355 1354 1353 1352 1352 1351 1350 1349 1348 1346 1345 1344 1343 1341 1340 1339 1339 1337 1336 1336
1390 1390 1390 1390 1389 1388 1388 1388 1387 1386 1386 1385 1384 1384 1384 1382 1382 1381 1380 1379 1378 1377 1376 1375 1374 1374 1373 1372 1371 1370 1369 1368 1367 1365 1364 1363 1362 1360 1359 1358 1356 1355 1353 1352 1351 1350 1349 1348 1348 1347 1346 1344 1343 1341 1340 1339 1336 1335 1334 1333 1332 1330 1330
1389 1389 1389 1388 1387 1387 1387 1386 1386 1386 1385 1384 1382 1381 1381 1380 1380 1379 1378 1377 1376 1375 1374 1374 1373 1372 1371 1370 1369 1368 1367 1366 1365 1364 1363 1362 1360 1359 1358 1356 1355 1354 1353 1351 1350 1349 1347 1346 1345 1344 1342 1341 1339 1338 1337 1336 1333 1331 1329 1329 1328 1326 1324
1388 1387 1387 1386 1386 1386 1385 1385 1385 1385 1384 1383 1381 1379 1378 1378 1378 1377 1377 1375 1375 1374 1373 1372 1372 1371 1370 1369 1368 1367 1366 1365 1364 1363 1362 1360 1359 1358 1356 1355 1354 1353 1352 1350 1349 1347 1346 1344 1343 1341 1340 1338 1337 1335 1334 1333 1331 1329 1327 1325 1325 1323 1321
1386 1385 1385 1384 1384 1384 1384 1384 1383 1383 1384 1383 1381 1379 1377 1376 1375 1375 1375 1374 1373 1372 1371 1371 1370 1369 1368 1368 1367 1366 1365 1364 1363 1362 1360 1359 1358 1356 1355 1354 1352 1351 1350 1348 1347 1345 1344 1342 1340 1339 1337 1336 1334 1333 1332 1330 1328 1326 1324 1323 1321 1320 1318
1386 1384 1383 1383 1382 1382 1382 1382 1382 1382 1383 1383 1380 1379 1378 1376 1374 1374 1373 1372 1372 1371 1370 1369 1369 1368 1367 1366 1365 1364 1363 1362 1361 1360 1359 1358 1356 1355 1353 1352 1351 1349 1348 1347 1345 1344 1342 1341 1339 1337 1336 1334 1332 1330 1329 1328 1326 1324 1322 1320 1319 1317 1315
1385 1383 1381 1380 1380 1380 1380 1381 1381 1381 1381 1380 1378 1378 1377 1376 1374 1373 1372 1372 1371 1370 1369 1369 1368 1367 1366 1365 1364 1363 1362 1361 1360 1358 1357 1356 1355 1353 1352 1350 1349 1348 1346 1345 1343 1342 1341 1339 1338 1336 1334 1332 1331 1328 1327 1325 1324 1322 1320 1319 1317 1315 1313
1383 1382 1381 1379 1379 1378 1379 1379 1379 1379 1379 1378 1377 1376 1376 1375 1373 1372 1372 1371 1370 1370 1369 1368 1367 1366 1365 1364 1363 1362 1361 1360 1359 1358 1356 1355 1354 1352 1351 1349 1348 1346 1345 1344 1342 1341 1339 1338 1336 1335 1333 1331 1330 1327 1325 1324 1322 1320 1319 1317 1315 1313 1312
1381 1380 1380 1379 1378 1378 1377 1377 1378 1377 1377 1376 1375 1375 1374 1374 1373 1372 1372 1371 1370 1369 1368 1367 1366 1365 1364 1363 1362 1362 1361 1360 1359 1358 1356 1355 1353 1351 1350 1348 1347 1345 1344 1343 1341 1340 1338 1337 1335 1333 1332 1330 1329 1327 1325 1323 1321 1319 1317 1315 1314 1312 1310
1379 1379 1378 1377 1377 1377 1377 1377 1376 1376 1375 1375 1374 1374 1373 1373 1372 1372 1371 1370 1369 1368 1367 1367 1366 1365 1364 1363 1362 1361 1360 1359 1358 1357 1355 1354 1353 1351 1349 1348 1346 1345 1343 1341 1340 1339 1337 1335 1334 1332 1331 1329 1327 1326 1324 1322 1320 1318 1316 1314 1312 1310 1308
1377 1377 1376 1376 1376 1376 1376 1375 1375 1375 1374 1374 1374 1373 1373 1372 1372 1371 1370 1370 1369 1368 1367 1366 1365 1364 1363 1362 1361 1360 1359 1358 1357 1356 1354 1353 1352 1350 1348 1347 1345 1344 1342 1340 1339 1337 1336 1334 1333 1331 1330 1328 1326 1324 1323 1321 1319 1318 1316 1314 1311 1309 1307
1375 1375 1375 1375 1375 1375 1375 1374 1374 1374 1373 1373 1373 1372 1372 1372 1371 1371 1370 1369 1368 1367 1366 1365 1364 1364 1363 1362 1361 1360 1359 1357 1356 1355 1353 1352 1350 1349 1347 1346 1344 1342 1341 1339 1338 1336 1335 1333 1332 1330 1329 1327 1325 1324 1322 1320 1319 1317 1315 1313 1311 1309 1306